Temp
5 5 4 4 4 4 4 5 5 5 5 5 5 5 6 6 5 6 5 5 5 5 5 5 5 5 6 6 5 5 5 5 5 5 5 4 5 6 7 7 8 8 9 8 8 8 7
4 4 4 4 4 4 4 4 4 4 5 5 5 5 5 5 5 6 5 5 5 5 5 5 5 6 6 6 4 5 5 5 5 5 5 5 5 6 7 7 8 8 8 8 7 7 7
4 4 4 4 4 4 3 3 4 4 4 4 5 5 5 5 5 5 5 5 5 5 5 5 5 6 6 5 5 5 5 5 5 5 5 5 5 5 6 7 7 7 8 7 7 8 7
3 3 4 4 4 4 3 3 3 3 4 4 4 5 5 5 5 5 5 5 5 5 5 5 5 6 6 5 5 5 5 5 6 6 6 5 5 5 5 6 7 8 8 8 8 8 8
3 3 3 3 3 3 3 3 3 3 3 4 4 4 4 4 5 5 5 5 5 4 4 5 5 5 5 5 5 5 5 5 6 6 6 6 6 6 6 6 8 8 9 9 8 8 8
3 3 3 3 4 4 3 3 2 2 3 3 3 4 4 4 4 4 5 5 4 4 4 5 5 5 5 5 5 5 5 6 6 6 6 6 6 6 7 7 8 9 9 10 9 8 8
3 3 3 4 4 4 3 2 2 2 2 3 3 4 4 4 4 4 4 4 4 4 4 5 3 5 4 4 5 6 5 6 6 6 7 7 7 8 8 8 9 9 10 10 10 9 8
2 2 3 3 4 4 3 2 2 1 2 2 3 3 3 4 4 4 4 3 1 3 4 4 5 5 5 5 5 6 5 6 6 7 7 7 7 8 8 8 9 9 10 10 9 8 9
2 2 3 3 3 4 4 2 2 1 1 2 3 3 3 3 3 3 3 3 3 3 4 4 5 5 5 5 5 6 6 7 6 6 8 7 8 8 8 8 9 9 9 8 9 8 8
2 2 2 2 3 3 4 3 2 1 1 1 2 3 3 3 3 3 3 2 2 3 3 5 4 5 5 5 5 6 6 6 6 6 6 6 7 8 8 9 8 8 9 9 9 9 10
2 2 2 2 2 3 4 3 2 0 0 1 2 2 2 2 3 2 1 2 2 3 6 6 5 5 5 5 6 6 5 6 7 7 7 8 7 8 8 8 8 7 8 9 9 10 9
1 1 2 2 2 3 3 3 2 0 -0 1 2 2 2 3 3 2 2 2 2 2 5 5 5 5 5 5 6 7 6 6 6 7 7 6 7 8 8 8 8 8 8 8 8 9 10
1 1 1 2 2 3 3 3 1 -0 -0 0 1 2 2 2 2 2 2 1 2 4 6 6 6 5 6 6 6 6 6 6 7 7 7 7 7 7 7 7 7 7 8 9 9 10 10
-1 0 0 1 2 2 3 3 1 -1 -1 -0 1 2 2 2 2 1 1 1 3 6 6 6 6 6 6 6 6 6 7 7 7 7 8 8 8 7 7 8 8 8 8 9 8 9 10
-7 -4 -2 -0 1 1 2 2 0 -2 -1 -1 0 1 2 2 2 1 1 1 4 6 6 6 6 6 6 6 6 6 6 7 7 7 7 7 8 6 7 6 7 8 8 7 8 7 7
-9 -9 -7 -4 -2 -0 1 1 -1 -3 -2 -1 0 1 2 1 1 1 1 2 4 5 6 6 6 6 7 6 6 6 7 7 7 7 6 8 8 6 6 6 6 6 7 7 7 7 8
-9 -9 -8 -9 -8 -3 -1 -0 -3 -2 -1 -1 -0 -0 1 1 1 0 -0 2 4 5 5 5 6 6 7 7 6 7 7 6 6 6 7 8 8 6 5 6 8 6 6 7 7 7 8
-9 -9 -9 -9 -9 -9 -6 -4 -3 -2 -2 -2 -1 -2 1 0 0 0 0 2 4 4 4 5 5 6 6 7 7 7 7 7 6 6 6 7 7 7 7 6 6 6 7 7 7 8 6
-10 -9 -9 -9 -9 -9 -8 -6 -3 -2 -2 -2 -2 -2 -1 0 -1 -0 1 3 4 4 4 5 5 6 6 6 6 6 7 6 6 6 6 6 6 7 7 6 6 6 6 6 7 5 6
-11 -10 -10 -9 -9 -9 -8 -5 -3 -2 -3 -3 -3 -2 -1 0 -1 1 2 3 3 4 5 5 5 5 5 6 6 6 6 5 5 5 6 5 6 7 7 8 7 6 6 6 6 5 6
-11 -10 -10 -10 -9 -9 -9 -6 -5 -3 -4 -4 -2 -1 -0 -1 -0 1 2 3 3 4 4 4 5 5 5 5 5 5 5 5 5 5 5 5 5 6 6 6 5 6 6 6 6 6 6
-10 -10 -10 -10 -9 -10 -9 -7 -5 -5 -4 -3 -2 -0 -0 -1 0 0 2 3 4 5 4 4 5 5 6 6 5 5 5 4 4 5 5 5 5 5 4 5 4 5 5 6 6 6 6
-10 -10 -10 -10 -9 -9 -9 -7 -4 -5 -4 -3 -1 0 0 0 0 1 2 3 4 4 4 5 5 6 5 5 5 5 5 5 5 5 5 4 4 4 4 4 4 4 6 5 6 6 6
-10 -10 -10 -10 -10 -9 -8 -7 -5 -4 -3 -2 -1 -1 0 0 1 1 3 3 4 3 4 5 5 5 5 5 5 5 5 5 5 5 4 4 4 3 4 3 2 6 6 6 5 5 6
-10 -10 -10 -10 -9 -8 -8 -5 -4 -4 -2 -1 -1 -0 1 1 1 2 3 3 3 3 4 4 5 5 5 5 4 4 4 4 4 4 4 4 3 3 3 4 5 5 5 5 4 5 4
-10 -10 -9 -9 -9 -5 -6 -4 -3 -2 -2 -1 -1 -1 0 1 1 2 2 3 2 3 4 4 4 4 4 4 4 3 4 4 3 3 3 3 3 2 2 2 1 4 5 4 4 3 2
-9 -9 -8 -7 -7 -5 -5 -4 -3 -3 -2 -1 -1 0 1 1 2 2 2 2 3 3 3 4 4 4 4 4 3 3 3 4 3 3 3 2 2 2 1 1 3 3 3 3 3 2 2
-8 -7 -6 -6 -5 -5 -4 -3 -2 -2 -2 -1 -0 -0 1 1 1 2 1 2 2 3 3 3 4 4 4 3 2 3 3 3 3 3 3 3 3 2 1 1 1 2 2 2 1 2 1
-6 -6 -5 -5 -4 -3 -2 -2 -2 -2 -1 -1 -1 0 1 1 2 2 2 2 2 2 3 3 3 4 4 2 3 2 3 3 2 3 3 2 2 2 2 3 2 2 1 1 1 1 1
Height
3108 3110 3112 3115 3118 3121 3123 3125 3127 3128 3129 3129 3130 3130 3130 3129 3129 3128 3128 3127 3125 3123 3120 3118 3118 3119 3121 3122 3123 3120 3120 3120 3120 3122 3122 3126 3128 3130 3131 3130 3132 3132 3133 3133 3132 3134 3134
3099 3101 3104 3107 3110 3114 3117 3118 3121 3122 3124 3124 3125 3125 3125 3124 3124 3124 3124 3124 3122 3119 3117 3116 3116 3117 3119 3120 3121 3121 3121 3121 3121 3122 3123 3127 3129 3130 3130 3130 3131 3131 3132 3133 3133 3133 3135
3090 3092 3095 3098 3102 3105 3109 3113 3115 3116 3118 3120 3120 3121 3120 3120 3120 3120 3120 3120 3119 3116 3115 3115 3115 3116 3117 3119 3119 3121 3121 3122 3122 3123 3125 3127 3128 3129 3130 3130 3130 3130 3131 3133 3134 3135 3136
3083 3084 3086 3089 3092 3097 3101 3105 3108 3110 3112 3114 3115 3116 3116 3116 3117 3116 3117 3117 3115 3114 3113 3114 3115 3115 3116 3117 3118 3120 3122 3122 3122 3123 3124 3124 3125 3126 3127 3128 3130 3131 3132 3133 3133 3135 3135
3076 3078 3079 3080 3083 3088 3092 3097 3101 3104 3106 3108 3110 3110 3111 3112 3113 3113 3114 3113 3113 3111 3111 3113 3115 3114 3116 3117 3119 3121 3122 3123 3123 3123 3124 3124 3124 3125 3127 3128 3131 3130 3128 3130 3132 3133 3135
3069 3070 3072 3073 3076 3080 3083 3088 3093 3097 3101 3103 3105 3106 3107 3108 3109 3110 3110 3109 3110 3110 3110 3112 3114 3118 3117 3119 3120 3121 3121 3122 3124 3124 3124 3123 3124 3125 3127 3128 3127 3126 3126 3126 3129 3133 3135
3060 3063 3064 3066 3068 3071 3075 3079 3085 3090 3094 3097 3100 3101 3103 3105 3105 3106 3107 3108 3111 3110 3108 3111 3113 3114 3116 3117 3118 3121 3122 3123 3124 3124 3125 3124 3126 3125 3126 3127 3127 3125 3124 3124 3126 3132 3134
3048 3052 3056 3058 3060 3063 3067 3072 3077 3082 3087 3091 3094 3096 3099 3101 3102 3103 3104 3106 3107 3107 3107 3107 3109 3111 3113 3115 3118 3121 3122 3125 3125 3123 3124 3126 3125 3126 3126 3127 3127 3124 3123 3125 3127 3130 3133
3036 3040 3045 3049 3052 3054 3059 3063 3068 3075 3080 3084 3088 3091 3095 3097 3098 3100 3102 3103 3105 3105 3106 3108 3108 3110 3112 3115 3117 3120 3122 3124 3123 3123 3123 3123 3123 3124 3125 3126 3126 3125 3124 3127 3125 3129 3130
3022 3027 3032 3037 3042 3047 3050 3054 3060 3067 3073 3078 3082 3086 3091 3093 3097 3097 3100 3102 3104 3106 3108 3107 3106 3109 3110 3113 3116 3119 3120 3124 3122 3124 3123 3120 3123 3124 3125 3124 3125 3125 3124 3126 3127 3127 3124
3005 3012 3019 3025 3031 3036 3041 3046 3051 3058 3064 3070 3075 3081 3086 3088 3092 3096 3098 3101 3103 3107 3106 3103 3106 3108 3110 3112 3114 3115 3117 3121 3121 3122 3124 3121 3122 3123 3124 3123 3125 3124 3124 3127 3127 3123 3121
2986 2995 3003 3010 3018 3025 3030 3036 3042 3050 3057 3063 3069 3075 3079 3085 3090 3092 3095 3100 3104 3109 3103 3098 3101 3103 3108 3110 3112 3113 3115 3119 3119 3120 3120 3120 3121 3123 3120 3123 3125 3125 3126 3127 3126 3124 3121
2965 2975 2985 2994 3002 3010 3018 3024 3032 3041 3049 3055 3062 3068 3076 3081 3086 3089 3093 3098 3104 3100 3099 3097 3097 3100 3104 3107 3110 3111 3113 3116 3118 3120 3121 3122 3122 3122 3123 3125 3125 3126 3126 3122 3121 3119 3120
2939 2953 2964 2976 2986 2996 3005 3011 3022 3032 3041 3047 3055 3062 3069 3076 3080 3086 3090 3096 3093 3090 3094 3092 3095 3099 3102 3104 3107 3109 3110 3113 3115 3115 3115 3116 3120 3121 3122 3124 3122 3124 3123 3121 3120 3118 3117
2918 2930 2943 2956 2968 2979 2990 2999 3011 3024 3033 3039 3047 3054 3060 3071 3076 3082 3086 3087 3084 3087 3090 3091 3094 3096 3099 3102 3105 3107 3108 3110 3112 3113 3115 3113 3114 3117 3120 3122 3125 3123 3123 3123 3123 3123 3124
2904 2915 2925 2936 2949 2962 2974 2985 3000 3015 3024 3032 3040 3048 3058 3066 3072 3078 3080 3079 3082 3086 3087 3089 3091 3092 3095 3099 3102 3104 3106 3108 3109 3110 3112 3110 3113 3117 3118 3120 3121 3122 3122 3123 3123 3123 3117
2890 2902 2913 2923 2933 2945 2958 2971 2989 3005 3016 3028 3035 3042 3053 3059 3067 3071 3069 3075 3079 3083 3086 3087 3089 3090 3093 3095 3099 3101 3103 3106 3108 3109 3111 3113 3114 3116 3116 3118 3118 3119 3120 3121 3120 3120 3117
2879 2892 2902 2913 2922 2932 2944 2958 2978 2993 3009 3018 3028 3037 3040 3049 3056 3060 3067 3072 3079 3079 3082 3084 3086 3089 3091 3093 3096 3098 3100 3104 3105 3108 3111 3113 3113 3112 3114 3113 3114 3115 3115 3117 3118 3118 3118
2868 2879 2890 2900 2912 2923 2934 2949 2968 2982 2993 3007 3019 3033 3036 3044 3045 3054 3066 3071 3076 3076 3079 3081 3084 3086 3089 3092 3096 3097 3099 3099 3102 3105 3109 3110 3111 3111 3111 3114 3111 3111 3113 3114 3115 3115 3115
2860 2870 2881 2890 2903 2914 2925 2939 2955 2971 2983 3002 3016 3022 3027 3031 3045 3054 3061 3065 3071 3072 3077 3079 3082 3084 3087 3089 3092 3094 3097 3097 3099 3101 3104 3106 3108 3108 3107 3107 3106 3108 3110 3111 3112 3113 3112
2854 2865 2874 2884 2895 2906 2917 2928 2942 2960 2980 2996 3007 3013 3011 3016 3032 3045 3057 3062 3066 3068 3072 3075 3079 3081 3084 3087 3090 3092 3094 3094 3097 3099 3102 3104 3105 3105 3105 3105 3106 3106 3107 3108 3108 3108 3108
2848 2859 2869 2879 2889 2900 2910 2916 2935 2949 2976 2986 2995 3006 3013 3022 3037 3042 3050 3056 3061 3065 3069 3071 3076 3078 3082 3085 3087 3090 3092 3092 3094 3096 3098 3100 3102 3102 3102 3103 3103 3103 3103 3103 3103 3103 3103
2844 2855 2864 2873 2884 2895 2901 2913 2926 2941 2959 2975 2992 3005 3010 3018 3029 3039 3044 3052 3058 3062 3065 3068 3073 3077 3080 3082 3083 3086 3088 3091 3093 3093 3095 3097 3098 3099 3100 3099 3099 3099 3095 3096 3097 3098 3099
2840 2850 2859 2867 2876 2887 2893 2909 2924 2938 2950 2975 2986 2998 3006 3013 3023 3032 3043 3050 3055 3058 3062 3066 3071 3074 3076 3079 3081 3083 3085 3087 3088 3090 3092 3093 3095 3096 3097 3097 3099 3093 3091 3091 3091 3092 3094
2838 2847 2855 2863 2870 2880 2894 2907 2919 2938 2955 2971 2976 2995 3005 3012 3020 3033 3041 3047 3052 3054 3058 3061 3066 3070 3073 3076 3079 3081 3083 3085 3086 3087 3088 3090 3091 3093 3094 3094 3092 3090 3089 3088 3088 3091 3088
2836 2843 2851 2860 2863 2880 2892 2907 2923 2939 2957 2961 2980 2990 3002 3010 3018 3030 3037 3043 3046 3050 3056 3059 3064 3067 3071 3073 3076 3078 3081 3083 3085 3084 3084 3086 3087 3091 3090 3091 3090 3086 3084 3084 3085 3088 3084
2833 2839 2847 2858 2870 2884 2897 2911 2928 2944 2957 2967 2982 2994 3003 3010 3018 3028 3032 3037 3045 3049 3054 3057 3062 3065 3068 3070 3073 3077 3079 3080 3081 3081 3081 3082 3084 3086 3088 3088 3086 3084 3082 3082 3085 3088 3081
2832 2841 2851 2861 2877 2890 2905 2920 2935 2949 2960 2969 2983 2992 3002 3006 3013 3022 3028 3036 3040 3046 3049 3054 3060 3062 3065 3069 3072 3073 3075 3077 3078 3079 3078 3081 3082 3083 3085 3085 3084 3080 3081 3083 3082 3080 3077
2837 2848 2859 2872 2885 2900 2914 2927 2938 2952 2963 2972 2983 2992 2999 3006 3012 3018 3025 3030 3036 3042 3049 3052 3057 3058 3062 3066 3068 3069 3071 3073 3075 3077 3076 3080 3080 3081 3083 3082 3078 3078 3078 3076 3075 3074 3073
Wind_Speed
41 39 39 38 37 35 32 31 29 28 26 25 24 23 23 23 23 24 25 25 24 25 20 16 11 10 12 11 10 10 7 2 4 3 3 8 8 8 8 10 10 15 6 8 4 12 8
40 41 40 39 38 37 35 32 31 28 27 26 24 23 23 23 21 23 24 24 24 22 16 12 9 11 12 11 12 7 4 3 2 3 4 9 7 8 7 8 12 11 9 6 8 8 14
36 39 40 40 39 38 36 35 33 29 28 26 24 23 23 23 21 22 22 23 23 18 13 11 9 11 13 12 11 8 5 2 4 4 8 9 11 7 3 5 10 7 9 7 8 10 12
34 36 37 39 40 39 37 36 35 31 29 27 25 23 23 23 21 21 22 22 21 15 11 10 10 11 10 14 11 11 7 3 3 5 7 10 10 11 8 8 6 8 8 14 7 12 10
34 34 34 36 38 38 39 37 35 33 30 28 26 24 24 22 20 20 20 20 18 13 11 11 12 10 9 13 14 9 7 4 4 4 6 7 9 10 7 6 10 13 12 13 12 12 11
37 35 35 35 35 36 38 38 35 35 32 29 26 24 23 21 19 19 20 17 15 11 11 12 13 8 10 8 12 10 7 6 5 3 3 5 7 7 9 14 15 14 14 15 13 14 14
42 39 36 37 36 34 37 39 36 35 33 29 26 24 24 21 18 17 17 14 10 11 14 13 6 12 10 10 18 12 8 4 7 4 7 3 6 14 16 15 8 5 8 13 14 12 14
47 44 41 38 37 36 33 39 37 35 34 30 28 25 23 20 18 17 14 11 12 13 11 15 14 16 13 14 14 13 11 7 14 9 7 12 11 11 13 9 5 7 8 9 9 11 13
52 49 46 43 40 38 33 35 38 36 35 32 29 26 23 20 18 15 12 11 12 10 8 10 15 16 12 14 17 15 14 10 12 14 8 12 6 10 10 6 6 7 6 5 7 13 12
58 55 51 47 43 39 37 34 40 36 36 34 31 27 24 21 16 13 11 13 13 8 5 12 21 18 14 14 17 17 16 12 8 14 8 10 9 8 7 8 8 12 7 4 3 14 21
64 60 56 51 46 41 39 35 42 39 38 36 33 28 25 21 16 15 20 17 13 10 5 11 18 13 11 13 6 21 18 13 11 15 12 4 6 8 9 4 10 3 4 5 9 15 10
68 64 60 55 51 45 42 38 43 43 39 38 35 30 28 22 19 22 23 20 15 7 11 12 20 18 15 14 12 13 24 15 10 8 14 10 7 7 4 10 6 6 2 5 8 12 11
70 67 64 60 55 50 46 44 46 48 42 41 37 34 28 25 23 28 26 22 11 12 8 14 21 20 18 14 14 15 22 20 17 14 16 12 10 10 7 5 5 6 9 13 7 5 9
69 68 66 61 57 53 49 49 48 50 43 43 39 36 31 28 30 33 30 24 13 13 16 8 20 19 19 15 15 15 19 23 22 19 17 17 10 13 10 11 6 9 12 9 6 7 7
61 64 66 63 61 57 54 54 50 53 43 45 42 40 37 31 36 38 33 28 19 11 18 13 17 22 20 17 13 16 19 23 20 21 13 20 7 12 10 7 6 7 8 5 6 7 8
57 51 58 68 67 63 59 59 53 52 49 47 45 41 35 36 43 40 35 31 24 15 15 15 21 23 23 19 16 18 18 20 18 19 16 6 4 7 8 7 9 9 4 4 7 3 7
47 58 58 52 55 71 68 62 57 51 51 47 46 41 37 42 48 44 37 32 22 16 15 17 21 18 21 19 19 19 18 13 17 17 19 14 13 5 6 10 13 7 11 9 6 5 4
46 44 58 57 57 52 61 61 62 52 53 51 48 36 44 49 52 48 35 29 20 17 15 16 18 17 19 19 19 17 20 17 17 15 15 15 11 13 12 11 13 11 11 12 10 8 7
52 40 48 55 54 49 48 59 70 55 57 56 49 35 33 51 51 40 30 28 26 19 18 19 18 19 18 18 16 17 17 19 14 20 16 13 12 15 12 11 14 13 13 13 13 9 12
46 42 43 47 50 52 45 69 65 52 60 56 44 35 38 60 45 36 35 30 28 20 18 19 18 18 16 18 18 15 15 18 20 18 20 15 16 15 17 13 5 12 14 15 17 14 16
46 43 40 43 48 45 42 74 71 56 61 54 44 42 48 56 54 41 34 30 29 23 18 21 20 19 18 17 17 13 15 14 17 16 17 15 13 15 19 13 10 11 12 13 19 23 23
49 39 41 41 43 40 41 67 58 58 60 59 46 43 36 40 45 31 34 32 31 24 21 23 20 21 18 14 15 14 16 13 15 19 18 18 12 13 12 14 14 17 19 19 19 21 23
45 44 42 44 45 46 45 64 61 72 66 63 40 39 39 31 52 32 32 32 31 23 22 21 22 22 19 16 16 11 14 13 11 13 16 11 12 10 10 8 8 14 21 23 23 22 21
45 43 43 42 42 45 44 55 72 75 71 53 32 38 45 37 53 41 30 29 29 22 20 22 18 19 22 19 15 13 12 14 12 13 13 15 12 11 7 4 2 11 13 14 12 15 18
43 38 36 39 39 46 56 70 74 68 67 43 31 36 35 35 46 35 33 28 25 24 17 25 24 19 17 16 15 12 11 12 14 15 16 15 13 8 5 9 12 14 12 12 7 5 6
38 33 35 40 38 66 67 76 73 70 60 33 40 34 29 36 41 36 30 30 26 25 20 19 19 16 15 18 16 10 8 10 7 5 16 15 15 11 8 4 4 3 8 9 8 6 3
35 28 34 47 41 60 73 61 67 68 46 45 34 28 22 36 25 37 32 28 26 21 20 22 15 14 14 17 18 9 9 9 7 8 8 15 16 15 11 7 7 10 13 10 5 4 9
39 35 35 44 72 61 65 66 66 62 44 42 36 28 26 29 30 30 31 27 29 25 23 23 20 19 18 17 14 10 9 11 8 7 7 7 8 9 9 7 6 7 2 1 7 16 21
38 46 69 56 51 64 66 64 65 57 43 40 32 29 25 28 24 24 30 29 33 27 23 22 17 17 19 13 15 12 10 10 13 6 12 6 9 5 7 3 10 8 14 15 19 22 23
Wind_Direction
255 252 253 254 256 255 255 257 260 263 265 268 271 274 278 282 289 294 292 293 299 303 303 298 282 248 226 231 231 270 279 233 163 162 167 196 206 205 224 217 209 208 201 243 245 202 157
256 254 252 253 253 255 255 254 257 260 263 265 269 271 274 280 286 290 289 293 298 299 295 288 265 234 226 222 227 231 190 175 188 207 203 205 207 213 225 213 201 217 220 218 156 167 183
258 257 253 252 252 252 253 255 256 257 261 265 267 269 273 277 284 286 287 292 297 293 287 274 242 224 227 209 196 198 175 218 258 240 220 227 214 212 234 200 208 220 191 164 230 198 208
265 263 257 252 249 249 250 251 252 253 255 259 262 264 268 274 280 283 287 293 293 285 275 254 228 223 219 200 193 178 190 219 248 232 219 226 224 218 216 220 194 160 170 181 197 189 205
264 265 265 260 254 247 247 248 249 251 251 253 255 257 264 270 276 280 286 292 285 275 258 235 220 216 184 203 188 186 199 200 211 227 232 229 218 207 229 194 175 196 188 198 190 186 187
259 261 265 264 259 250 244 243 245 247 249 250 252 255 260 265 270 278 285 286 279 268 244 221 213 199 209 185 202 191 205 210 200 221 254 236 191 191 190 178 193 186 228 195 190 189 185
257 257 259 263 262 255 242 240 239 242 244 246 247 250 255 260 265 274 279 277 271 266 239 206 226 188 181 205 192 187 206 210 200 228 209 140 206 219 198 199 258 212 207 199 167 181 194
257 256 255 256 258 259 248 240 235 237 240 241 243 245 249 255 259 266 267 251 211 225 226 214 215 194 203 199 192 189 203 198 215 231 205 190 213 209 187 209 244 223 197 162 152 178 199
256 255 254 253 252 253 251 239 232 231 235 237 237 240 244 248 252 258 244 217 217 222 220 234 209 187 187 206 199 201 208 215 209 241 231 212 203 207 190 206 195 217 219 240 199 191 204
254 253 252 251 249 246 248 238 226 227 230 233 233 232 236 240 245 236 214 200 195 208 218 226 205 195 191 190 207 202 204 203 198 223 269 188 200 187 202 213 245 218 206 191 175 197 211
251 250 250 250 247 243 241 236 223 220 225 227 228 227 230 230 236 202 188 182 182 179 247 195 192 196 199 195 202 214 209 207 216 221 218 171 200 195 212 198 223 108 169 214 235 254 243
250 248 247 245 244 239 235 231 222 215 222 224 223 220 224 222 216 196 181 180 177 175 242 183 191 193 193 202 216 205 210 207 220 200 225 263 222 188 199 219 207 254 220 241 247 257 264
246 245 243 241 238 235 229 228 219 212 220 220 219 216 216 215 193 185 181 179 175 217 196 194 190 188 194 201 206 206 200 207 208 204 205 212 204 228 201 189 215 218 250 257 216 246 245
235 235 236 234 233 229 225 225 217 206 216 215 214 214 210 205 193 183 182 187 204 215 213 192 188 191 198 199 205 205 203 210 213 223 217 201 196 204 211 221 276 226 273 263 290 293 276
218 222 223 224 223 222 219 222 212 201 217 213 211 210 207 199 187 186 185 199 196 216 201 186 189 194 200 203 210 206 207 210 214 220 205 244 186 189 195 216 226 225 248 250 283 288 277
213 212 215 211 212 213 214 215 207 199 213 212 210 208 201 194 186 191 196 204 202 218 202 194 194 194 199 200 203 200 200 206 209 214 231 242 164 186 228 220 241 228 210 240 227 260 258
207 216 213 213 213 211 210 211 197 197 208 207 207 202 196 190 189 193 206 205 198 217 206 197 200 198 206 201 204 205 204 206 210 218 220 232 239 195 212 235 241 230 233 237 260 253 287
205 210 220 218 217 214 213 208 186 195 203 199 200 192 198 190 191 199 204 202 203 212 216 199 210 208 205 203 206 214 213 217 205 206 213 225 242 247 257 239 239 243 246 238 235 238 231
204 201 213 217 217 206 208 192 185 191 196 193 192 188 198 191 196 197 200 207 210 205 213 201 203 200 202 203 206 212 211 215 216 214 219 227 239 246 244 258 252 240 240 237 237 245 237
210 215 208 212 211 210 205 185 189 187 190 188 180 188 191 194 194 197 196 202 206 202 214 204 202 198 201 205 204 214 211 224 218 213 218 220 232 234 242 269 277 228 240 240 231 233 246
214 212 211 205 208 213 203 190 192 180 184 178 183 196 194 190 192 190 199 202 199 203 202 193 202 197 193 194 200 210 205 221 212 214 214 214 233 243 248 261 266 256 255 250 242 245 247
213 209 205 201 205 207 210 202 189 170 176 178 181 191 201 196 187 197 197 204 198 199 201 198 202 190 195 200 200 216 213 213 214 218 221 228 238 242 252 255 262 262 257 256 251 251 253
202 201 200 204 204 202 215 196 172 170 176 176 173 191 194 193 186 188 197 196 195 193 194 195 196 198 198 207 203 217 205 211 209 218 222 222 223 243 251 249 268 271 266 256 254 252 254
196 198 204 204 206 207 201 192 170 170 171 161 166 179 179 182 186 193 193 193 196 192 195 186 183 190 203 214 220 224 225 217 219 225 233 238 229 222 247 250 268 268 268 258 252 255 261
196 203 204 205 205 196 191 169 171 174 158 162 157 169 178 182 181 186 193 192 194 178 178 194 198 198 199 207 202 204 205 226 239 242 239 234 223 217 210 227 268 280 252 275 265 262 287
200 202 201 207 193 180 169 167 168 164 161 165 155 160 186 177 183 183 183 191 188 185 184 184 188 193 202 205 201 201 214 222 204 220 228 224 225 211 216 217 235 266 256 280 280 268 305
194 193 170 166 170 166 170 168 161 161 162 152 155 163 168 182 175 189 191 191 190 190 197 197 196 199 208 206 196 192 210 194 194 192 222 217 218 224 237 240 264 256 281 286 251 254 271
156 162 163 154 160 166 165 164 162 159 156 156 155 161 161 172 184 190 189 193 192 190 200 205 209 211 205 205 205 207 217 208 209 216 222 215 205 221 209 229 257 273 325 221 244 283 292
138 153 159 159 161 156 162 163 163 161 158 153 158 171 178 183 180 193 202 202 197 197 205 213 216 230 220 194 208 213 211 216 213 225 236 218 221 225 216 270 256 253 288 284 287 289 291